Time,TemperatureF,DewpointF,PressureIn,WindDirection,WindDirectionDegrees,WindSpeedMPH,WindSpeedGustMPH,Humidity,HourlyPrecipIn,Conditions,Clouds,dailyrainin,SoftwareType,DateUTC
2013-01-09 00:00:00,37.6,30.1,30.03,South,180,13.2,15.9,74,0.00,,,0.00,WUHU216HW,2013-01-09 06:00:00,
2013-01-09 00:05:00,37.6,30.1,30.02,South,180,9.6,15.7,74,0.00,,,0.00,WUHU216HW,2013-01-09 06:05:00,
2013-01-09 00:10:00,37.8,30.2,30.02,SSW,203,13.4,14.8,74,0.00,,,0.00,WUHU216HW,2013-01-09 06:10:00,
2013-01-09 00:15:00,37.8,30.2,30.02,SSW,203,8.9,14.8,74,0.00,,,0.00,WUHU216HW,2013-01-09 06:15:00,
2013-01-09 00:20:00,37.8,30.2,30.01,SSW,203,10.5,13.9,74,0.00,,,0.00,WUHU216HW,2013-01-09 06:20:00,
2013-01-09 00:25:00,38.0,30.4,30.01,South,180,10.3,18.3,74,0.00,,,0.00,WUHU216HW,2013-01-09 06:25:00,
2013-01-09 00:30:00,38.0,30.4,30.01,SSW,203,7.6,18.3,74,0.00,,,0.00,WUHU216HW,2013-01-09 06:30:00,
2013-01-09 00:35:00,38.2,30.6,30.00,SSW,203,12.1,12.1,74,0.00,,,0.00,WUHU216HW,2013-01-09 06:35:00,
2013-01-09 00:40:00,38.2,30.6,30.01,WSW,248,11.0,12.8,74,0.00,,,0.00,WUHU216HW,2013-01-09 06:40:00,
2013-01-09 00:45:00,38.2,30.6,30.01,SW,225,8.9,12.8,74,0.00,,,0.00,WUHU216HW,2013-01-09 06:45:00,
2013-01-09 00:50:00,38.2,30.6,30.02,SSW,203,9.2,15.7,74,0.00,,,0.00,WUHU216HW,2013-01-09 06:50:00,
2013-01-09 00:55:00,38.2,30.6,30.02,SSW,203,6.5,15.7,74,0.00,,,0.00,WUHU216HW,2013-01-09 06:55:00,
2013-01-09 01:00:00,38.0,30.4,30.02,WSW,248,7.8,12.1,74,0.00,,,0.00,WUHU216HW,2013-01-09 07:00:00,
2013-01-09 01:05:00,38.0,30.4,30.02,SSW,203,8.3,11.6,74,0.00,,,0.00,WUHU216HW,2013-01-09 07:05:00,
2013-01-09 01:10:00,37.8,30.2,30.02,SSW,203,6.5,11.2,74,0.00,,,0.00,WUHU216HW,2013-01-09 07:10:00,
2013-01-09 01:15:00,37.6,30.4,30.02,SW,225,10.5,11.4,75,0.00,,,0.00,WUHU216HW,2013-01-09 07:15:00,
2013-01-09 01:20:00,37.4,30.2,30.02,SW,225,7.8,11.9,75,0.00,,,0.00,WUHU216HW,2013-01-09 07:20:00,
2013-01-09 01:25:00,37.4,30.2,30.02,SSW,203,9.6,11.9,75,0.00,,,0.00,WUHU216HW,2013-01-09 07:25:00,
2013-01-09 01:30:00,37.3,30.4,30.02,SW,225,6.7,10.5,76,0.00,,,0.00,WUHU216HW,2013-01-09 07:30:00,
2013-01-09 01:35:00,37.1,30.3,30.02,SW,225,5.1,10.5,76,0.00,,,0.00,WUHU216HW,2013-01-09 07:35:00,
2013-01-09 01:40:00,37.1,30.3,30.02,SW,225,7.4,9.8,76,0.00,,,0.00,WUHU216HW,2013-01-09 07:40:00,
2013-01-09 01:45:00,36.9,30.3,30.02,SW,225,4.3,8.9,77,0.00,,,0.00,WUHU216HW,2013-01-09 07:45:00,
2013-01-09 01:50:00,36.7,30.2,30.02,WSW,248,4.7,8.9,77,0.00,,,0.00,WUHU216HW,2013-01-09 07:50:00,
2013-01-09 01:55:00,36.7,29.9,30.02,SSW,203,7.8,10.1,76,0.00,,,0.00,WUHU216HW,2013-01-09 07:55:00,
2013-01-09 02:00:00,36.7,29.9,30.03,SW,225,6.7,10.5,76,0.00,,,0.00,WUHU216HW,2013-01-09 08:00:00,
2013-01-09 02:05:00,36.5,29.7,30.03,WSW,248,6.9,10.5,76,0.00,,,0.00,WUHU216HW,2013-01-09 08:05:00,
2013-01-09 02:10:00,36.5,29.7,30.03,WSW,248,3.6,7.6,76,0.00,,,0.00,WUHU216HW,2013-01-09 08:10:00,
2013-01-09 02:15:00,36.4,29.5,30.03,West,270,6.7,7.6,76,0.00,,,0.00,WUHU216HW,2013-01-09 08:15:00,
2013-01-09 02:20:00,36.5,29.7,30.03,SSW,203,4.0,7.6,76,0.00,,,0.00,WUHU216HW,2013-01-09 08:20:00,
2013-01-09 02:25:00,36.5,29.7,30.03,SW,225,5.4,7.6,76,0.00,,,0.00,WUHU216HW,2013-01-09 08:25:00,
2013-01-09 02:30:00,36.7,29.9,30.03,South,180,4.5,7.6,76,0.00,,,0.00,WUHU216HW,2013-01-09 08:30:00,
2013-01-09 02:35:00,36.7,29.9,30.04,SSW,203,7.8,7.8,76,0.00,,,0.00,WUHU216HW,2013-01-09 08:35:00,
2013-01-09 02:40:00,36.7,29.9,30.04,WSW,248,5.8,7.8,76,0.00,,,0.00,WUHU216HW,2013-01-09 08:40:00,
2013-01-09 02:45:00,36.9,30.1,30.04,SW,225,13.0,13.0,76,0.00,,,0.00,WUHU216HW,2013-01-09 08:45:00,
2013-01-09 02:50:00,37.3,30.4,30.04,SW,225,11.2,13.0,76,0.00,,,0.00,WUHU216HW,2013-01-09 08:50:00,
2013-01-09 02:55:00,37.4,30.6,30.03,WSW,248,10.5,11.9,76,0.00,,,0.00,WUHU216HW,2013-01-09 08:55:00,
2013-01-09 03:00:00,37.4,30.6,30.04,WSW,248,8.1,11.9,76,0.00,,,0.00,WUHU216HW,2013-01-09 09:00:00,
2013-01-09 03:05:00,37.4,30.6,30.04,SSW,203,5.6,11.9,76,0.00,,,0.00,WUHU216HW,2013-01-09 09:05:00,
2013-01-09 03:10:00,37.6,30.8,30.04,WSW,248,9.4,11.9,76,0.00,,,0.00,WUHU216HW,2013-01-09 09:10:00,
2013-01-09 03:15:00,37.6,30.8,30.04,West,270,9.8,13.9,76,0.00,,,0.00,WUHU216HW,2013-01-09 09:15:00,
2013-01-09 03:20:00,37.6,31.1,30.04,WSW,248,11.2,13.9,77,0.00,,,0.00,WUHU216HW,2013-01-09 09:20:00,
2013-01-09 03:25:00,37.6,30.8,30.04,SW,225,12.5,13.4,76,0.00,,,0.00,WUHU216HW,2013-01-09 09:25:00,
2013-01-09 03:30:00,37.6,31.1,30.05,WSW,248,8.7,13.4,77,0.00,,,0.00,WUHU216HW,2013-01-09 09:30:00,
2013-01-09 03:35:00,37.4,30.6,30.05,SW,225,7.4,11.4,76,0.00,,,0.00,WUHU216HW,2013-01-09 09:35:00,
2013-01-09 03:40:00,37.3,30.4,30.05,WSW,248,6.0,11.4,76,0.00,,,0.00,WUHU216HW,2013-01-09 09:40:00,
2013-01-09 03:45:00,37.1,30.3,30.06,West,270,5.1,12.3,76,0.00,,,0.00,WUHU216HW,2013-01-09 09:45:00,
2013-01-09 03:50:00,37.1,30.5,30.07,WNW,293,9.8,13.4,77,0.00,,,0.00,WUHU216HW,2013-01-09 09:50:00,
2013-01-09 03:55:00,36.9,30.3,30.07,WSW,248,7.6,13.4,77,0.00,,,0.00,WUHU216HW,2013-01-09 09:55:00,
2013-01-09 04:00:00,36.9,30.3,30.06,WSW,248,10.3,10.5,77,0.00,,,0.00,WUHU216HW,2013-01-09 10:00:00,
2013-01-09 04:05:00,36.7,30.5,30.06,WSW,248,5.8,13.2,78,0.00,,,0.00,WUHU216HW,2013-01-09 10:05:00,
2013-01-09 04:10:00,36.5,30.3,30.07,WSW,248,9.8,13.2,78,0.00,,,0.00,WUHU216HW,2013-01-09 10:10:00,
2013-01-09 04:15:00,36.4,30.2,30.07,West,270,8.5,12.5,78,0.00,,,0.00,WUHU216HW,2013-01-09 10:15:00,
2013-01-09 04:20:00,36.4,30.4,30.07,West,270,11.6,11.6,79,0.00,,,0.00,WUHU216HW,2013-01-09 10:20:00,
2013-01-09 04:25:00,36.4,30.4,30.07,WSW,248,11.9,11.9,79,0.00,,,0.00,WUHU216HW,2013-01-09 10:25:00,
2013-01-09 04:30:00,36.2,30.2,30.07,WSW,248,5.8,12.8,79,0.00,,,0.00,WUHU216HW,2013-01-09 10:30:00,
2013-01-09 04:35:00,36.2,30.2,30.07,NW,315,6.9,15.0,79,0.00,,,0.00,WUHU216HW,2013-01-09 10:35:00,
2013-01-09 04:40:00,36.0,30.1,30.08,West,270,10.5,15.0,79,0.00,,,0.00,WUHU216HW,2013-01-09 10:40:00,
2013-01-09 04:45:00,35.8,30.2,30.09,West,270,6.7,11.0,80,0.00,,,0.00,WUHU216HW,2013-01-09 10:45:00,
2013-01-09 04:50:00,35.8,30.2,30.09,WSW,248,9.6,14.3,80,0.00,,,0.00,WUHU216HW,2013-01-09 10:50:00,
2013-01-09 04:55:00,35.6,30.1,30.09,WSW,248,9.4,14.3,80,0.00,,,0.00,WUHU216HW,2013-01-09 10:55:00,
2013-01-09 05:00:00,35.5,29.9,30.09,WSW,248,6.5,9.4,80,0.00,,,0.00,WUHU216HW,2013-01-09 11:00:00,
2013-01-09 05:05:00,35.3,29.7,30.09,WSW,248,6.9,8.9,80,0.00,,,0.00,WUHU216HW,2013-01-09 11:05:00,
2013-01-09 05:11:00,35.1,29.8,30.09,West,270,8.5,11.6,81,0.00,,,0.00,WUHU216HW,2013-01-09 11:11:00,
2013-01-09 05:16:00,34.9,29.6,30.10,WSW,248,10.7,11.6,81,0.00,,,0.00,WUHU216HW,2013-01-09 11:16:00,
2013-01-09 05:21:00,34.9,29.6,30.10,WSW,248,9.6,10.7,81,0.00,,,0.00,WUHU216HW,2013-01-09 11:21:00,
2013-01-09 05:26:00,34.7,29.7,30.11,West,270,11.4,11.4,82,0.00,,,0.00,WUHU216HW,2013-01-09 11:26:00,
2013-01-09 05:31:00,34.6,29.5,30.11,West,270,7.6,11.4,82,0.00,,,0.00,WUHU216HW,2013-01-09 11:31:00,
2013-01-09 05:36:00,34.6,29.5,30.12,WSW,248,5.4,10.5,82,0.00,,,0.00,WUHU216HW,2013-01-09 11:36:00,
2013-01-09 05:41:00,34.4,29.3,30.12,West,270,9.8,10.3,82,0.00,,,0.00,WUHU216HW,2013-01-09 11:41:00,
2013-01-09 05:46:00,34.2,29.2,30.12,West,270,6.3,10.3,82,0.00,,,0.00,WUHU216HW,2013-01-09 11:46:00,
2013-01-09 05:51:00,34.2,29.2,30.13,WSW,248,7.2,11.4,82,0.00,,,0.00,WUHU216HW,2013-01-09 11:51:00,
2013-01-09 05:56:00,34.0,29.0,30.13,SW,225,7.2,11.6,82,0.00,,,0.00,WUHU216HW,2013-01-09 11:56:00,
2013-01-09 06:01:00,34.0,29.4,30.14,West,270,9.2,11.9,83,0.00,,,0.00,WUHU216HW,2013-01-09 12:01:00,
2013-01-09 06:06:00,34.0,29.6,30.14,WSW,248,8.9,11.9,84,0.00,,,0.00,WUHU216HW,2013-01-09 12:06:00,
2013-01-09 06:11:00,34.2,29.8,30.14,WSW,248,6.9,10.1,84,0.00,,,0.00,WUHU216HW,2013-01-09 12:11:00,
2013-01-09 06:16:00,34.2,29.8,30.14,West,270,7.8,10.1,84,0.00,,,0.00,WUHU216HW,2013-01-09 12:16:00,
2013-01-09 06:21:00,34.0,29.9,30.15,West,270,6.7,8.9,85,0.00,,,0.00,WUHU216HW,2013-01-09 12:21:00,
2013-01-09 06:26:00,34.0,29.9,30.15,WSW,248,6.0,9.4,85,0.00,,,0.00,WUHU216HW,2013-01-09 12:26:00,
2013-01-09 06:31:00,33.8,29.7,30.16,WSW,248,6.9,9.4,85,0.00,,,0.00,WUHU216HW,2013-01-09 12:31:00,
2013-01-09 06:36:00,33.8,29.7,30.16,West,270,4.9,8.9,85,0.00,,,0.00,WUHU216HW,2013-01-09 12:36:00,
2013-01-09 06:41:00,33.8,30.0,30.16,WNW,293,7.4,10.1,86,0.00,,,0.00,WUHU216HW,2013-01-09 12:41:00,
2013-01-09 06:46:00,33.8,30.2,30.16,WSW,248,7.6,10.1,87,0.00,,,0.00,WUHU216HW,2013-01-09 12:46:00,
2013-01-09 06:51:00,34.0,31.1,30.16,WSW,248,5.8,8.5,89,0.00,,,0.00,WUHU216HW,2013-01-09 12:51:00,
2013-01-09 06:56:00,33.8,30.6,30.16,SW,225,7.6,7.6,88,0.00,,,0.00,WUHU216HW,2013-01-09 12:56:00,
2013-01-09 07:01:00,33.7,29.8,30.16,WSW,248,6.0,8.5,86,0.00,,,0.00,WUHU216HW,2013-01-09 13:01:00,
2013-01-09 07:06:00,33.5,30.0,30.17,WSW,248,5.8,8.5,87,0.00,,,0.00,WUHU216HW,2013-01-09 13:06:00,
2013-01-09 07:11:00,33.5,30.2,30.17,WSW,248,6.5,7.8,88,0.00,,,0.00,WUHU216HW,2013-01-09 13:11:00,
2013-01-09 07:16:00,33.5,30.0,30.17,WSW,248,4.5,7.8,87,0.00,,,0.00,WUHU216HW,2013-01-09 13:16:00,
2013-01-09 07:21:00,33.1,29.3,30.17,WSW,248,7.6,7.8,86,0.00,,,0.00,WUHU216HW,2013-01-09 13:21:00,
2013-01-09 07:26:00,33.1,29.6,30.18,WSW,248,5.1,7.6,87,0.00,,,0.00,WUHU216HW,2013-01-09 13:26:00,
2013-01-09 07:31:00,33.1,29.1,30.18,WSW,248,8.1,10.7,85,0.00,,,0.00,WUHU216HW,2013-01-09 13:31:00,
2013-01-09 07:36:00,32.8,28.4,30.18,WSW,248,8.7,10.7,84,0.00,,,0.00,WUHU216HW,2013-01-09 13:36:00,
2013-01-09 07:41:00,32.8,28.4,30.18,SW,225,3.8,8.7,84,0.00,,,0.00,WUHU216HW,2013-01-09 13:41:00,
2013-01-09 07:46:00,32.6,28.3,30.18,WSW,248,5.8,8.5,84,0.00,,,0.00,WUHU216HW,2013-01-09 13:46:00,
2013-01-09 07:51:00,32.8,30.2,30.18,SW,225,6.3,8.9,90,0.00,,,0.00,WUHU216HW,2013-01-09 13:51:00,
2013-01-09 07:56:00,33.3,31.0,30.18,SSW,203,4.9,9.4,91,0.00,,,0.00,WUHU216HW,2013-01-09 13:56:00,
2013-01-09 08:01:00,34.2,31.8,30.18,WSW,248,4.7,9.4,91,0.00,,,0.00,WUHU216HW,2013-01-09 14:01:00,
2013-01-09 08:06:00,34.2,32.0,30.19,WSW,248,6.7,7.6,92,0.00,,,0.00,WUHU216HW,2013-01-09 14:06:00,
2013-01-09 08:11:00,34.6,32.4,30.20,SW,225,6.9,8.5,92,0.00,,,0.00,WUHU216HW,2013-01-09 14:11:00,
2013-01-09 08:16:00,34.4,30.8,30.20,West,270,8.9,8.9,87,0.00,,,0.00,WUHU216HW,2013-01-09 14:16:00,
2013-01-09 08:21:00,34.6,31.6,30.20,WSW,248,6.5,8.9,89,0.00,,,0.00,WUHU216HW,2013-01-09 14:21:00,
2013-01-09 08:26:00,34.7,30.3,30.20,WSW,248,8.7,12.5,84,0.00,,,0.00,WUHU216HW,2013-01-09 14:26:00,
2013-01-09 08:31:00,34.6,29.5,30.21,West,270,9.2,12.5,82,0.00,,,0.00,WUHU216HW,2013-01-09 14:31:00,
2013-01-09 08:36:00,34.6,29.5,30.21,WSW,248,6.5,11.6,82,0.00,,,0.00,WUHU216HW,2013-01-09 14:36:00,
2013-01-09 08:41:00,34.7,29.2,30.21,SW,225,8.3,12.8,80,0.00,,,0.00,WUHU216HW,2013-01-09 14:41:00,
2013-01-09 08:46:00,34.7,29.2,30.21,WSW,248,10.5,13.2,80,0.00,,,0.00,WUHU216HW,2013-01-09 14:46:00,
2013-01-09 08:51:00,34.7,29.2,30.21,WSW,248,10.5,13.6,80,0.00,,,0.00,WUHU216HW,2013-01-09 14:51:00,
2013-01-09 08:56:00,34.9,29.0,30.22,West,270,16.8,16.8,79,0.00,,,0.00,WUHU216HW,2013-01-09 14:56:00,
2013-01-09 09:01:00,35.1,28.9,30.22,West,270,11.4,16.8,78,0.00,,,0.00,WUHU216HW,2013-01-09 15:01:00,
2013-01-09 09:06:00,35.3,29.1,30.22,WSW,248,9.2,12.1,78,0.00,,,0.00,WUHU216HW,2013-01-09 15:06:00,
2013-01-09 09:11:00,35.5,29.3,30.23,WSW,248,7.6,14.1,78,0.00,,,0.00,WUHU216HW,2013-01-09 15:11:00,
2013-01-09 09:16:00,35.6,29.4,30.23,WSW,248,8.3,14.1,78,0.00,,,0.00,WUHU216HW,2013-01-09 15:16:00,
2013-01-09 09:21:00,35.8,29.6,30.23,WSW,248,8.3,9.8,78,0.00,,,0.00,WUHU216HW,2013-01-09 15:21:00,
2013-01-09 09:26:00,36.0,29.4,30.23,SW,225,6.3,13.6,77,0.00,,,0.00,WUHU216HW,2013-01-09 15:26:00,
2013-01-09 09:31:00,36.2,29.6,30.24,WSW,248,8.5,15.4,77,0.00,,,0.00,WUHU216HW,2013-01-09 15:31:00,
2013-01-09 09:36:00,36.4,29.5,30.24,WSW,248,4.9,15.4,76,0.00,,,0.00,WUHU216HW,2013-01-09 15:36:00,
2013-01-09 09:41:00,36.9,30.1,30.24,WSW,248,5.4,9.8,76,0.00,,,0.00,WUHU216HW,2013-01-09 15:41:00,
2013-01-09 09:46:00,37.1,30.3,30.24,WSW,248,9.6,9.8,76,0.00,,,0.00,WUHU216HW,2013-01-09 15:46:00,
2013-01-09 09:51:00,37.4,30.2,30.25,WSW,248,10.5,13.0,75,0.00,,,0.00,WUHU216HW,2013-01-09 15:51:00,
2013-01-09 09:56:00,37.8,30.2,30.25,SW,225,7.6,13.0,74,0.00,,,0.00,WUHU216HW,2013-01-09 15:56:00,
2013-01-09 10:01:00,37.8,30.2,30.25,SW,225,10.1,12.1,74,0.00,,,0.00,WUHU216HW,2013-01-09 16:01:00,
2013-01-09 10:06:00,38.0,30.4,30.25,West,270,6.3,17.0,74,0.00,,,0.00,WUHU216HW,2013-01-09 16:06:00,
2013-01-09 10:11:00,38.5,31.6,30.25,SW,225,10.7,17.0,76,0.00,,,0.00,WUHU216HW,2013-01-09 16:11:00,
2013-01-09 10:16:00,39.1,32.8,30.25,SW,225,11.4,15.0,78,0.00,,,0.00,WUHU216HW,2013-01-09 16:16:00,
2013-01-09 10:21:00,39.2,32.0,30.25,WSW,248,9.2,15.7,75,0.00,,,0.00,WUHU216HW,2013-01-09 16:21:00,
2013-01-09 10:26:00,39.2,31.6,30.25,WSW,248,10.1,17.2,74,0.00,,,0.00,WUHU216HW,2013-01-09 16:26:00,
2013-01-09 10:31:00,39.6,32.3,30.25,WSW,248,9.4,17.2,75,0.00,,,0.00,WUHU216HW,2013-01-09 16:31:00,
2013-01-09 10:36:00,40.1,31.8,30.25,WSW,248,7.8,16.3,72,0.00,,,0.00,WUHU216HW,2013-01-09 16:36:00,
2013-01-09 10:41:00,40.7,32.3,30.26,WSW,248,10.7,14.3,72,0.00,,,0.00,WUHU216HW,2013-01-09 16:41:00,
2013-01-09 10:46:00,40.9,30.7,30.26,SSW,203,12.8,12.8,67,0.00,,,0.00,WUHU216HW,2013-01-09 16:46:00,
2013-01-09 10:51:00,41.0,30.9,30.26,WSW,248,11.6,12.8,67,0.00,,,0.00,WUHU216HW,2013-01-09 16:51:00,
2013-01-09 10:56:00,41.2,31.1,30.26,SW,225,11.9,19.2,67,0.00,,,0.00,WUHU216HW,2013-01-09 16:56:00,
2013-01-09 11:01:00,41.4,31.2,30.26,SW,225,10.3,19.9,67,0.00,,,0.00,WUHU216HW,2013-01-09 17:01:00,
2013-01-09 11:06:00,41.6,31.1,30.25,SW,225,10.5,19.9,66,0.00,,,0.00,WUHU216HW,2013-01-09 17:06:00,
2013-01-09 11:11:00,41.8,30.9,30.26,WSW,248,11.4,14.8,65,0.00,,,0.00,WUHU216HW,2013-01-09 17:11:00,
2013-01-09 11:16:00,41.9,31.0,30.26,WSW,248,13.2,14.5,65,0.00,,,0.00,WUHU216HW,2013-01-09 17:16:00,
2013-01-09 11:21:00,42.1,30.8,30.26,West,270,12.8,17.7,64,0.00,,,0.00,WUHU216HW,2013-01-09 17:21:00,
2013-01-09 11:26:00,42.5,30.7,30.26,SW,225,7.8,17.7,63,0.00,,,0.00,WUHU216HW,2013-01-09 17:26:00,
2013-01-09 11:31:00,42.8,30.7,30.26,WSW,248,18.3,18.3,62,0.00,,,0.00,WUHU216HW,2013-01-09 17:31:00,
2013-01-09 11:36:00,43.0,30.4,30.27,West,270,14.5,20.1,61,0.00,,,0.00,WUHU216HW,2013-01-09 17:36:00,
2013-01-09 11:41:00,43.4,30.4,30.27,WSW,248,13.6,20.1,60,0.00,,,0.00,WUHU216HW,2013-01-09 17:41:00,
2013-01-09 11:46:00,43.6,30.6,30.28,West,270,11.0,14.3,60,0.00,,,0.00,WUHU216HW,2013-01-09 17:46:00,
2013-01-09 11:51:00,43.7,29.9,30.28,West,270,9.2,15.7,58,0.00,,,0.00,WUHU216HW,2013-01-09 17:51:00,
2013-01-09 11:56:00,44.3,29.5,30.29,WNW,293,10.7,16.8,56,0.00,,,0.00,WUHU216HW,2013-01-09 17:56:00,
2013-01-09 12:01:00,44.3,29.1,30.29,WSW,248,8.7,16.8,55,0.00,,,0.00,WUHU216HW,2013-01-09 18:01:00,
2013-01-09 12:06:00,44.6,28.5,30.29,WSW,248,17.9,17.9,53,0.00,,,0.00,WUHU216HW,2013-01-09 18:06:00,
2013-01-09 12:11:00,44.6,28.5,30.29,WSW,248,10.3,18.6,53,0.00,,,0.00,WUHU216HW,2013-01-09 18:11:00,
2013-01-09 12:16:00,44.8,27.8,30.29,WSW,248,14.1,18.6,51,0.00,,,0.00,WUHU216HW,2013-01-09 18:16:00,
2013-01-09 12:21:00,44.6,27.6,30.29,WSW,248,11.0,20.1,51,0.00,,,0.00,WUHU216HW,2013-01-09 18:21:00,
2013-01-09 12:26:00,44.8,27.4,30.29,West,270,18.6,20.1,50,0.00,,,0.00,WUHU216HW,2013-01-09 18:26:00,
2013-01-09 12:31:00,45.0,27.0,30.29,NW,315,16.1,18.6,49,0.00,,,0.00,WUHU216HW,2013-01-09 18:31:00,
2013-01-09 12:36:00,45.2,27.1,30.29,WSW,248,8.1,17.2,49,0.00,,,0.00,WUHU216HW,2013-01-09 18:36:00,
2013-01-09 12:41:00,45.2,26.6,30.29,WSW,248,11.4,15.0,48,0.00,,,0.00,WUHU216HW,2013-01-09 18:41:00,
2013-01-09 12:46:00,45.2,26.0,30.29,West,270,10.3,17.2,47,0.00,,,0.00,WUHU216HW,2013-01-09 18:46:00,
2013-01-09 12:51:00,45.4,25.7,30.29,SW,225,12.1,17.2,46,0.00,,,0.00,WUHU216HW,2013-01-09 18:51:00,
2013-01-09 12:56:00,45.5,25.8,30.29,WNW,293,14.1,15.0,46,0.00,,,0.00,WUHU216HW,2013-01-09 18:56:00,
2013-01-09 13:01:00,45.0,25.4,30.29,WSW,248,13.6,17.2,46,0.00,,,0.00,WUHU216HW,2013-01-09 19:01:00,
2013-01-09 13:06:00,45.0,25.9,30.29,SW,225,12.1,17.9,47,0.00,,,0.00,WUHU216HW,2013-01-09 19:06:00,
2013-01-09 13:11:00,45.0,25.4,30.30,SW,225,14.1,18.6,46,0.00,,,0.00,WUHU216HW,2013-01-09 19:11:00,
2013-01-09 13:16:00,45.2,26.0,30.29,West,270,12.1,18.6,47,0.00,,,0.00,WUHU216HW,2013-01-09 19:16:00,
2013-01-09 13:21:00,45.4,25.7,30.30,West,270,11.2,15.4,46,0.00,,,0.00,WUHU216HW,2013-01-09 19:21:00,
2013-01-09 13:26:00,45.2,26.0,30.29,WNW,293,12.1,15.0,47,0.00,,,0.00,WUHU216HW,2013-01-09 19:26:00,
2013-01-09 13:31:00,45.4,26.7,30.29,WSW,248,7.6,15.0,48,0.00,,,0.00,WUHU216HW,2013-01-09 19:31:00,
2013-01-09 13:36:00,45.5,26.4,30.29,WSW,248,10.1,13.6,47,0.00,,,0.00,WUHU216HW,2013-01-09 19:36:00,
2013-01-09 13:41:00,45.4,25.7,30.30,West,270,8.5,15.7,46,0.00,,,0.00,WUHU216HW,2013-01-09 19:41:00,
2013-01-09 13:46:00,45.2,25.5,30.31,SSW,203,7.4,19.0,46,0.00,,,0.00,WUHU216HW,2013-01-09 19:46:00,
2013-01-09 13:51:00,45.0,25.9,30.31,SW,225,10.7,19.0,47,0.00,,,0.00,WUHU216HW,2013-01-09 19:51:00,
2013-01-09 13:56:00,45.0,25.4,30.31,SSW,203,8.5,18.3,46,0.00,,,0.00,WUHU216HW,2013-01-09 19:56:00,
2013-01-09 14:01:00,45.4,25.1,30.31,WNW,293,20.6,20.6,45,0.00,,,0.00,WUHU216HW,2013-01-09 20:01:00,
2013-01-09 14:06:00,45.0,24.9,30.32,SW,225,10.5,22.4,45,0.00,,,0.00,WUHU216HW,2013-01-09 20:06:00,
2013-01-09 14:11:00,44.8,24.1,30.32,WSW,248,12.8,22.4,44,0.00,,,0.00,WUHU216HW,2013-01-09 20:11:00,
2013-01-09 14:16:00,44.5,23.2,30.32,WSW,248,18.6,20.6,43,0.00,,,0.00,WUHU216HW,2013-01-09 20:16:00,
2013-01-09 14:21:00,44.3,23.6,30.32,NNW,338,6.3,18.6,44,0.00,,,0.00,WUHU216HW,2013-01-09 20:21:00,
2013-01-09 14:26:00,44.3,24.1,30.32,SW,225,7.8,13.4,45,0.00,,,0.00,WUHU216HW,2013-01-09 20:26:00,
2013-01-09 14:31:00,44.3,24.1,30.33,WSW,248,15.2,15.2,45,0.00,,,0.00,WUHU216HW,2013-01-09 20:31:00,
2013-01-09 14:36:00,44.1,23.0,30.33,NW,315,12.5,15.2,43,0.00,,,0.00,WUHU216HW,2013-01-09 20:36:00,
2013-01-09 14:41:00,43.9,22.8,30.34,West,270,22.4,22.4,43,0.00,,,0.00,WUHU216HW,2013-01-09 20:41:00,
2013-01-09 14:46:00,43.7,22.6,30.34,WSW,248,15.9,22.4,43,0.00,,,0.00,WUHU216HW,2013-01-09 20:46:00,
2013-01-09 14:51:00,43.6,23.0,30.33,WNW,293,6.9,18.6,44,0.00,,,0.00,WUHU216HW,2013-01-09 20:51:00,
2013-01-09 14:56:00,43.6,23.0,30.34,West,270,6.9,18.6,44,0.00,,,0.00,WUHU216HW,2013-01-09 20:56:00,
2013-01-09 15:01:00,43.4,22.8,30.35,WSW,248,13.2,14.8,44,0.00,,,0.00,WUHU216HW,2013-01-09 21:01:00,
2013-01-09 15:06:00,43.0,23.1,30.35,WNW,293,11.4,17.2,45,0.00,,,0.00,WUHU216HW,2013-01-09 21:06:00,
2013-01-09 15:11:00,43.2,23.8,30.36,NW,315,11.2,17.2,46,0.00,,,0.00,WUHU216HW,2013-01-09 21:11:00,
2013-01-09 15:16:00,42.8,23.4,30.36,SW,225,12.1,20.8,46,0.00,,,0.00,WUHU216HW,2013-01-09 21:16:00,
2013-01-09 15:21:00,42.8,23.9,30.36,WSW,248,6.9,20.8,47,0.00,,,0.00,WUHU216HW,2013-01-09 21:21:00,
2013-01-09 15:26:00,42.5,24.1,30.36,SW,225,10.1,18.6,48,0.00,,,0.00,WUHU216HW,2013-01-09 21:26:00,
2013-01-09 15:31:00,42.3,24.5,30.36,WSW,248,10.5,18.6,49,0.00,,,0.00,WUHU216HW,2013-01-09 21:31:00,
2013-01-09 15:36:00,42.1,24.3,30.37,NNW,338,12.3,12.3,49,0.00,,,0.00,WUHU216HW,2013-01-09 21:36:00,
2013-01-09 15:41:00,42.1,24.3,30.37,SW,225,4.9,12.3,49,0.00,,,0.00,WUHU216HW,2013-01-09 21:41:00,
2013-01-09 15:46:00,41.8,24.5,30.37,WNW,293,4.0,11.9,50,0.00,,,0.00,WUHU216HW,2013-01-09 21:46:00,
2013-01-09 15:51:00,41.4,24.6,30.37,WNW,293,6.3,10.5,51,0.00,,,0.00,WUHU216HW,2013-01-09 21:51:00,
2013-01-09 15:56:00,41.0,24.7,30.37,North,0,4.0,13.4,52,0.00,,,0.00,WUHU216HW,2013-01-09 21:56:00,
2013-01-09 16:01:00,40.9,24.9,30.36,WNW,293,6.0,13.4,53,0.00,,,0.00,WUHU216HW,2013-01-09 22:01:00,
2013-01-09 16:06:00,40.5,25.0,30.37,NNW,338,6.7,9.8,54,0.00,,,0.00,WUHU216HW,2013-01-09 22:06:00,
2013-01-09 16:11:00,40.3,24.8,30.38,WNW,293,6.5,8.5,54,0.00,,,0.00,WUHU216HW,2013-01-09 22:11:00,
2013-01-09 16:16:00,40.0,25.0,30.38,WNW,293,4.7,7.8,55,0.00,,,0.00,WUHU216HW,2013-01-09 22:16:00,
2013-01-09 16:21:00,39.8,24.4,30.37,WNW,293,5.1,8.5,54,0.00,,,0.00,WUHU216HW,2013-01-09 22:21:00,
2013-01-09 16:26:00,39.6,23.8,30.38,NW,315,6.7,9.2,53,0.00,,,0.00,WUHU216HW,2013-01-09 22:26:00,
2013-01-09 16:31:00,39.4,23.6,30.38,NW,315,4.5,9.2,53,0.00,,,0.00,WUHU216HW,2013-01-09 22:31:00,
2013-01-09 16:36:00,39.2,23.9,30.39,West,270,3.6,6.9,54,0.00,,,0.00,WUHU216HW,2013-01-09 22:36:00,
2013-01-09 16:41:00,38.9,23.9,30.39,WNW,293,7.2,7.6,55,0.00,,,0.00,WUHU216HW,2013-01-09 22:41:00,
2013-01-09 16:46:00,38.5,24.1,30.40,West,270,7.6,9.4,56,0.00,,,0.00,WUHU216HW,2013-01-09 22:46:00,
2013-01-09 16:51:00,38.3,24.4,30.41,SSE,158,4.5,9.4,57,0.00,,,0.00,WUHU216HW,2013-01-09 22:51:00,
2013-01-09 16:56:00,38.0,24.0,30.41,SSW,203,5.8,7.6,57,0.00,,,0.00,WUHU216HW,2013-01-09 22:56:00,
2013-01-09 17:01:00,37.8,24.3,30.41,WNW,293,4.3,7.6,58,0.00,,,0.00,WUHU216HW,2013-01-09 23:01:00,
2013-01-09 17:06:00,37.8,24.8,30.42,NW,315,5.4,6.7,59,0.00,,,0.00,WUHU216HW,2013-01-09 23:06:00,
2013-01-09 17:11:00,37.4,24.4,30.42,NW,315,2.5,6.0,59,0.00,,,0.00,WUHU216HW,2013-01-09 23:11:00,
2013-01-09 17:16:00,37.3,24.7,30.42,WSW,248,4.7,6.3,60,0.00,,,0.00,WUHU216HW,2013-01-09 23:16:00,
2013-01-09 17:21:00,37.1,24.5,30.43,West,270,2.5,6.3,60,0.00,,,0.00,WUHU216HW,2013-01-09 23:21:00,
2013-01-09 17:26:00,37.1,24.5,30.43,WNW,293,4.5,6.3,60,0.00,,,0.00,WUHU216HW,2013-01-09 23:26:00,
2013-01-09 17:31:00,37.1,24.5,30.43,West,270,4.5,6.7,60,0.00,,,0.00,WUHU216HW,2013-01-09 23:31:00,
2013-01-09 17:36:00,36.9,24.4,30.43,WSW,248,3.6,6.7,60,0.00,,,0.00,WUHU216HW,2013-01-09 23:36:00,
2013-01-09 17:41:00,36.7,24.2,30.44,WSW,248,2.5,5.8,60,0.00,,,0.00,WUHU216HW,2013-01-09 23:41:00,
2013-01-09 17:46:00,36.5,24.0,30.44,West,270,3.1,5.8,60,0.00,,,0.00,WUHU216HW,2013-01-09 23:46:00,
2013-01-09 17:51:00,36.4,23.9,30.44,WSW,248,6.0,6.3,60,0.00,,,0.00,WUHU216HW,2013-01-09 23:51:00,
2013-01-09 17:56:00,36.4,23.9,30.45,West,270,3.8,6.3,60,0.00,,,0.00,WUHU216HW,2013-01-09 23:56:00,
2013-01-09 18:01:00,36.4,23.9,30.45,WSW,248,4.3,7.6,60,0.00,,,0.00,WUHU216HW,2013-01-10 00:01:00,
2013-01-09 18:06:00,36.4,24.2,30.46,WNW,293,4.5,7.6,61,0.00,,,0.00,WUHU216HW,2013-01-10 00:06:00,
2013-01-09 18:11:00,36.2,24.0,30.46,West,270,3.4,6.3,61,0.00,,,0.00,WUHU216HW,2013-01-10 00:11:00,
2013-01-09 18:16:00,36.0,24.0,30.46,WSW,248,4.7,5.1,61,0.00,,,0.00,WUHU216HW,2013-01-10 00:16:00,
2013-01-09 18:21:00,35.8,23.8,30.46,WSW,248,2.0,4.7,61,0.00,,,0.00,WUHU216HW,2013-01-10 00:21:00,
2013-01-09 18:26:00,35.6,23.6,30.46,WSW,248,2.9,3.4,61,0.00,,,0.00,WUHU216HW,2013-01-10 00:26:00,
2013-01-09 18:31:00,35.6,23.9,30.46,WSW,248,2.7,5.1,62,0.00,,,0.00,WUHU216HW,2013-01-10 00:31:00,
2013-01-09 18:36:00,35.5,23.8,30.46,WNW,293,2.2,5.1,62,0.00,,,0.00,WUHU216HW,2013-01-10 00:36:00,
2013-01-09 18:41:00,35.3,23.6,30.46,NW,315,1.1,4.7,62,0.00,,,0.00,WUHU216HW,2013-01-10 00:41:00,
2013-01-09 18:46:00,35.1,23.8,30.46,WNW,293,1.6,4.7,63,0.00,,,0.00,WUHU216HW,2013-01-10 00:46:00,
2013-01-09 18:51:00,34.9,23.9,30.46,WNW,293,2.0,4.7,64,0.00,,,0.00,WUHU216HW,2013-01-10 00:51:00,
2013-01-09 18:56:00,34.6,23.9,30.46,West,270,4.7,4.7,65,0.00,,,0.00,WUHU216HW,2013-01-10 00:56:00,
2013-01-09 19:01:00,34.4,23.8,30.46,West,270,1.3,4.7,65,0.00,,,0.00,WUHU216HW,2013-01-10 01:01:00,
2013-01-09 19:06:00,34.2,23.9,30.46,WNW,293,2.0,3.4,66,0.00,,,0.00,WUHU216HW,2013-01-10 01:06:00,
2013-01-09 19:11:00,34.2,23.9,30.45,West,270,2.5,4.9,66,0.00,,,0.00,WUHU216HW,2013-01-10 01:11:00,
2013-01-09 19:16:00,33.8,23.6,30.46,NW,315,1.8,4.9,66,0.00,,,0.00,WUHU216HW,2013-01-10 01:16:00,
2013-01-09 19:21:00,33.7,23.4,30.45,NW,315,2.7,3.4,66,0.00,,,0.00,WUHU216HW,2013-01-10 01:21:00,
2013-01-09 19:26:00,33.5,23.6,30.45,NNW,338,0.9,2.9,67,0.00,,,0.00,WUHU216HW,2013-01-10 01:26:00,
2013-01-09 19:31:00,33.3,23.9,30.45,WNW,293,2.5,2.9,68,0.00,,,0.00,WUHU216HW,2013-01-10 01:31:00,
2013-01-09 19:36:00,33.3,23.5,30.45,WNW,293,1.1,2.9,67,0.00,,,0.00,WUHU216HW,2013-01-10 01:36:00,
2013-01-09 19:41:00,33.1,23.3,30.45,West,270,1.1,2.9,67,0.00,,,0.00,WUHU216HW,2013-01-10 01:41:00,
2013-01-09 19:46:00,32.9,23.5,30.45,West,270,1.8,2.2,68,0.00,,,0.00,WUHU216HW,2013-01-10 01:46:00,
2013-01-09 19:51:00,32.9,23.9,30.46,West,270,3.1,3.4,69,0.00,,,0.00,WUHU216HW,2013-01-10 01:51:00,
2013-01-09 19:56:00,32.8,23.3,30.46,SW,225,1.6,3.8,68,0.00,,,0.00,WUHU216HW,2013-01-10 01:56:00,
2013-01-09 20:01:00,32.6,23.1,30.46,WSW,248,1.1,3.8,68,0.00,,,0.00,WUHU216HW,2013-01-10 02:01:00,
2013-01-09 20:06:00,32.2,23.2,30.46,West,270,1.1,2.7,69,0.00,,,0.00,WUHU216HW,2013-01-10 02:06:00,
2013-01-09 20:11:00,32.0,23.0,30.46,West,270,1.8,2.7,69,0.00,,,0.00,WUHU216HW,2013-01-10 02:11:00,
2013-01-09 20:16:00,31.9,22.9,30.46,WNW,293,0.7,2.0,69,0.00,,,0.00,WUHU216HW,2013-01-10 02:16:00,
2013-01-09 20:21:00,31.7,22.7,30.46,West,270,1.8,1.8,69,0.00,,,0.00,WUHU216HW,2013-01-10 02:21:00,
2013-01-09 20:26:00,31.3,22.3,30.46,West,270,1.6,2.2,69,0.00,,,0.00,WUHU216HW,2013-01-10 02:26:00,
2013-01-09 20:31:00,31.3,22.3,30.46,WSW,248,1.3,2.2,69,0.00,,,0.00,WUHU216HW,2013-01-10 02:31:00,
2013-01-09 20:36:00,31.0,22.7,30.46,WSW,248,2.5,2.5,71,0.00,,,0.00,WUHU216HW,2013-01-10 02:36:00,
2013-01-09 20:41:00,31.0,22.7,30.46,WNW,293,1.1,2.5,71,0.00,,,0.00,WUHU216HW,2013-01-10 02:41:00,
2013-01-09 20:46:00,31.0,23.0,30.46,West,270,2.9,2.9,72,0.00,,,0.00,WUHU216HW,2013-01-10 02:46:00,
2013-01-09 20:51:00,31.0,22.7,30.46,NW,315,0.7,2.9,71,0.00,,,0.00,WUHU216HW,2013-01-10 02:51:00,
2013-01-09 20:56:00,30.8,23.1,30.46,West,270,2.7,2.7,73,0.00,,,0.00,WUHU216HW,2013-01-10 02:56:00,
2013-01-09 21:01:00,30.8,22.8,30.46,WNW,293,0.9,2.7,72,0.00,,,0.00,WUHU216HW,2013-01-10 03:01:00,
2013-01-09 21:06:00,30.8,22.5,30.46,WNW,293,1.3,1.8,71,0.00,,,0.00,WUHU216HW,2013-01-10 03:06:00,
2013-01-09 21:11:00,30.6,22.6,30.45,WSW,248,1.6,2.2,72,0.00,,,0.00,WUHU216HW,2013-01-10 03:11:00,
2013-01-09 21:16:00,30.6,23.0,30.45,West,270,1.3,3.1,73,0.00,,,0.00,WUHU216HW,2013-01-10 03:16:00,
2013-01-09 21:21:00,30.6,23.0,30.44,WNW,293,1.3,3.1,73,0.00,,,0.00,WUHU216HW,2013-01-10 03:21:00,
2013-01-09 21:26:00,30.6,22.6,30.45,NW,315,1.6,2.9,72,0.00,,,0.00,WUHU216HW,2013-01-10 03:26:00,
2013-01-09 21:31:00,30.6,22.6,30.44,WNW,293,0.4,2.2,72,0.00,,,0.00,WUHU216HW,2013-01-10 03:31:00,
2013-01-09 21:36:00,30.4,22.8,30.44,NW,315,0.7,2.5,73,0.00,,,0.00,WUHU216HW,2013-01-10 03:36:00,
2013-01-09 21:41:00,30.4,22.8,30.44,WNW,293,1.3,2.5,73,0.00,,,0.00,WUHU216HW,2013-01-10 03:41:00,
2013-01-09 21:46:00,30.4,23.0,30.44,WNW,293,1.8,2.2,74,0.00,,,0.00,WUHU216HW,2013-01-10 03:46:00,
2013-01-09 21:52:00,30.4,22.8,30.44,WNW,293,1.8,2.5,73,0.00,,,0.00,WUHU216HW,2013-01-10 03:52:00,
2013-01-09 21:57:00,30.4,22.8,30.44,NW,315,2.9,2.9,73,0.00,,,0.00,WUHU216HW,2013-01-10 03:57:00,
2013-01-09 22:02:00,30.4,23.0,30.44,WNW,293,2.9,2.9,74,0.00,,,0.00,WUHU216HW,2013-01-10 04:02:00,
2013-01-09 22:07:00,30.4,23.0,30.44,NNW,338,2.5,2.9,74,0.00,,,0.00,WUHU216HW,2013-01-10 04:07:00,
2013-01-09 22:12:00,30.4,23.0,30.44,WNW,293,1.3,2.5,74,0.00,,,0.00,WUHU216HW,2013-01-10 04:12:00,
2013-01-09 22:17:00,30.4,23.0,30.44,NW,315,1.8,2.5,74,0.00,,,0.00,WUHU216HW,2013-01-10 04:17:00,
2013-01-09 22:22:00,30.4,23.0,30.45,West,270,2.5,3.4,74,0.00,,,0.00,WUHU216HW,2013-01-10 04:22:00,
2013-01-09 22:27:00,30.4,23.4,30.45,WSW,248,2.2,3.8,75,0.00,,,0.00,WUHU216HW,2013-01-10 04:27:00,
2013-01-09 22:32:00,30.4,23.8,30.46,WSW,248,2.7,4.0,76,0.00,,,0.00,WUHU216HW,2013-01-10 04:32:00,
2013-01-09 22:37:00,30.2,23.2,30.46,WSW,248,3.1,4.0,75,0.00,,,0.00,WUHU216HW,2013-01-10 04:37:00,
2013-01-09 22:42:00,30.1,23.0,30.46,West,270,1.1,3.4,75,0.00,,,0.00,WUHU216HW,2013-01-10 04:42:00,
2013-01-09 22:47:00,29.7,22.7,30.47,WNW,293,0.2,3.4,75,0.00,,,0.00,WUHU216HW,2013-01-10 04:47:00,
2013-01-09 22:52:00,28.8,21.5,30.47,SW,225,1.6,1.6,74,0.00,,,0.00,WUHU216HW,2013-01-10 04:52:00,
2013-01-09 22:57:00,28.6,21.7,30.48,SSW,203,1.8,2.5,75,0.00,,,0.00,WUHU216HW,2013-01-10 04:57:00,
2013-01-09 23:02:00,28.6,21.7,30.48,SW,225,2.7,2.7,75,0.00,,,0.00,WUHU216HW,2013-01-10 05:02:00,
2013-01-09 23:07:00,28.6,21.7,30.48,SW,225,1.8,2.7,75,0.00,,,0.00,WUHU216HW,2013-01-10 05:07:00,
2013-01-09 23:12:00,28.4,21.8,30.49,SW,225,2.0,2.5,76,0.00,,,0.00,WUHU216HW,2013-01-10 05:12:00,
2013-01-09 23:17:00,28.4,21.8,30.49,SW,225,1.6,2.5,76,0.00,,,0.00,WUHU216HW,2013-01-10 05:17:00,
2013-01-09 23:22:00,28.6,21.7,30.50,WSW,248,2.0,2.2,75,0.00,,,0.00,WUHU216HW,2013-01-10 05:22:00,
2013-01-09 23:27:00,28.8,22.1,30.50,SW,225,1.6,2.0,76,0.00,,,0.00,WUHU216HW,2013-01-10 05:27:00,
2013-01-09 23:32:00,28.6,22.0,30.50,South,180,0.9,1.8,76,0.00,,,0.00,WUHU216HW,2013-01-10 05:32:00,
2013-01-09 23:37:00,28.4,21.5,30.50,SW,225,0.0,1.8,75,0.00,,,0.00,WUHU216HW,2013-01-10 05:37:00,
2013-01-09 23:42:00,28.1,21.2,30.50,WSW,248,0.7,0.9,75,0.00,,,0.00,WUHU216HW,2013-01-10 05:42:00,
2013-01-09 23:47:00,27.9,21.0,30.50,WSW,248,0.7,1.1,75,0.00,,,0.00,WUHU216HW,2013-01-10 05:47:00,
2013-01-09 23:52:00,27.7,21.1,30.50,WSW,248,1.6,1.6,76,0.00,,,0.00,WUHU216HW,2013-01-10 05:52:00,
2013-01-09 23:57:00,27.7,20.8,30.50,West,270,1.3,1.6,75,0.00,,,0.00,WUHU216HW,2013-01-10 05:57:00,